Home > Weather > Kalispell > Past weeks

Flag for USA Past Weather in Kalispell, Montana, USA — Yesterday and Last 2 Weeks

Now
64 °F

Sunny.


Feels Like: 64 °F
Forecast: 48 / 82 °F
Wind: 7 mph from North

Location: Kalispell - Glacier Park International

Current Time: Jul 24, 2016 at 10:42:42 AM

Latest Report: Jul 24, 2016 at 9:55 AM


Visibility: 10 mi

Pressure: 30.13 "Hg (27.10 "Hg at 902m altitude)

Humidity: 52%

Dew Point: 46 °F

Location of KalispellLocation

Past Weather in Kalispell — Graph

°F

Kalispell Temperature Yesterday

Maximum temperature yesterday: 78 °F (at 5:55 PM)
Minimum temperature yesterday: 50 °F (at 5:55 AM)
Average temperature yesterday: 64 °F

High & Low Weather Summary for the Past Weeks

 TemperatureHumidityPressure
High86 °F (Jul 21, 4:55 PM)100% (Jul 10, 1:55 AM)30.20 "Hg (Jul 10, 1:55 AM)
Low40 °F (Jul 17, 5:56 AM)19% (Jul 15, 4:55 PM)29.70 "Hg (Jul 10, 5:55 PM)
Average63 °F65%29.98 "Hg
* Reported Jul 9 8:55 AM — Jul 24 8:55 AM, Kalispell, Weather by CustomWeather, © 2016

Note: Actual official high and low records may vary slightly from our data, if they occured in-between our weather recording intervals... More about our weather records

Advertising

Kalispell Weather History for the Previous 24 Hours

Scroll right to see more
 ConditionsComfort  
Time TempWeatherWind HumidityBarometerVisibility
8:55 AM
Sun, Jul 24
60 °FSunny.8 mph62%30.12 "Hg10 mi
7:55 AM56 °FSunny.8 mph77%30.12 "Hg10 mi
6:55 AM46 °FClear.No wind96%30.13 "Hg10 mi
5:55 AM43 °FClear.7 mph100%30.12 "Hg10 mi
4:55 AM44 °FClear.7 mph100%30.11 "Hg10 mi
3:55 AM44 °FClear.6 mph96%30.11 "Hg10 mi
2:55 AM46 °FClear.7 mph93%30.11 "Hg10 mi
1:55 AM48 °FClear.7 mph93%30.11 "Hg10 mi
12:55 AM50 °FClear.6 mph86%30.10 "Hg10 mi
11:55 PM
Sat, Jul 23
56 °FClear.8 mph72%30.09 "Hg10 mi
10:55 PM56 °FClear.5 mph67%30.09 "Hg10 mi
9:55 PM64 °FSunny.7 mph49%30.06 "Hg10 mi
8:55 PM69 °FSunny.8 mph42%30.05 "Hg10 mi
7:55 PM75 °FSunny.6 mph32%30.03 "Hg10 mi
6:55 PM77 °FSunny.7 mph30%30.03 "Hg10 mi
5:55 PM78 °FPartly sunny.9 mph29%30.03 "Hg10 mi
4:55 PM75 °FPassing clouds.7 mph33%30.05 "Hg10 mi
3:55 PM75 °FPartly sunny.15 mph37%30.06 "Hg10 mi
2:55 PM76 °FBroken clouds.10 mph37%30.06 "Hg10 mi
1:55 PM76 °FPassing clouds.9 mph37%30.07 "Hg10 mi
12:55 PM70 °FScattered clouds.9 mph44%30.09 "Hg10 mi
11:55 AM69 °FPartly sunny.12 mph47%30.11 "Hg10 mi
10:55 AM68 °FPassing clouds.12 mph47%30.11 "Hg10 mi
Weather by CustomWeather, © 2016

See weather overviewHow to use our weather pages